Theta_e
316 314 313 307 296 291 286 289 293 293 293 296 298 298 295 295 297 293 306 309 314 329 329 333 343 344 343 346 347 348 346 347 347 348 348 349 348 349 349 350 350 348 348 347 347 345 344 347 348
315 314 310 299 290 286 286 291 290 292 296 297 297 295 295 293 299 302 302 307 310 313 319 325 334 338 339 341 341 342 344 345 346 346 348 348 348 348 348 348 349 350 347 347 347 346 344 346 347
314 310 303 293 286 286 287 289 291 294 297 296 295 297 294 294 298 300 303 306 306 306 310 320 331 331 331 332 334 335 337 341 342 344 345 346 347 347 346 347 348 348 346 347 347 346 347 346 346
306 305 298 289 287 288 289 291 293 295 295 298 295 292 296 299 299 301 303 303 300 302 304 314 322 323 323 325 328 330 332 335 336 337 339 341 343 343 343 345 345 346 345 345 346 345 348 347 347
302 296 291 287 287 291 290 292 294 293 293 293 295 291 293 298 300 299 298 300 298 298 301 304 315 317 317 318 319 320 321 325 329 332 334 334 335 339 341 342 343 344 344 344 345 346 347 348 348
298 294 288 286 287 290 291 293 293 291 293 294 293 291 291 296 296 296 297 295 297 297 299 301 307 312 312 313 314 315 315 318 321 324 325 327 332 334 335 337 340 341 341 342 344 346 345 347 346
296 292 288 287 288 290 293 294 291 291 292 292 295 289 292 293 295 295 294 294 295 295 297 297 298 303 307 308 309 311 311 313 316 318 317 321 325 328 330 332 334 338 340 342 342 342 343 344 345
296 293 290 288 288 289 293 293 293 293 291 294 293 288 287 292 294 294 293 293 293 295 294 295 295 297 298 298 306 307 307 308 311 311 313 314 314 317 323 326 329 333 335 338 340 340 340 341 341
299 292 289 287 290 291 293 292 292 292 291 290 291 291 292 294 293 291 290 290 290 294 294 293 294 295 297 297 299 302 304 305 307 307 308 308 307 312 311 314 317 322 326 332 335 337 339 337 335
295 290 291 292 292 292 293 292 292 291 288 287 288 290 291 291 290 289 287 287 288 289 291 292 292 293 294 297 295 295 297 297 300 303 302 302 305 308 306 308 312 311 313 317 329 332 334 331 332
293 289 294 295 295 296 294 292 292 290 288 288 287 288 289 289 288 288 287 287 287 287 289 290 291 292 292 293 293 292 293 293 297 299 301 300 303 303 300 304 304 304 305 309 315 322 326 327 329
291 294 295 298 297 295 293 293 290 290 291 292 290 289 288 287 287 287 287 286 286 287 288 289 289 290 290 290 290 290 290 292 292 296 298 299 298 298 297 299 302 301 300 310 311 310 311 323 327
292 293 296 297 296 294 294 292 291 289 288 290 289 288 287 287 287 287 288 287 286 286 286 287 287 288 289 289 289 289 289 290 291 292 294 297 295 295 295 295 299 299 301 307 306 304 304 305 315
293 294 295 295 296 294 293 289 290 289 288 287 288 287 286 287 287 285 285 285 284 286 286 287 287 288 289 288 288 288 289 290 290 291 292 295 294 293 292 293 296 298 300 303 302 301 302 302 305
293 291 293 292 294 293 293 289 289 289 287 287 286 286 287 287 287 285 286 285 284 285 286 286 288 289 288 288 288 288 289 290 289 290 292 292 292 291 291 291 294 297 298 300 299 299 301 301 302
290 288 286 291 292 292 291 286 292 289 287 286 285 284 286 285 285 285 285 284 283 284 285 286 289 287 288 287 287 288 288 288 288 288 288 289 289 289 288 289 291 294 296 298 297 297 298 299 300
287 284 284 288 292 290 289 287 290 288 287 286 284 284 285 284 282 283 284 283 283 283 284 285 286 286 287 287 287 287 287 286 286 286 287 286 287 286 287 287 289 290 293 296 295 296 297 296 298
285 283 284 283 287 289 287 288 290 287 287 287 284 282 282 281 282 283 284 283 283 283 284 284 286 286 286 286 286 285 285 285 284 284 285 285 285 285 284 285 284 285 288 291 294 296 297 297 298
285 283 283 285 289 287 287 289 292 288 285 284 281 282 282 281 283 283 283 282 282 282 283 283 284 285 285 284 283 283 281 282 282 283 284 283 283 284 283 282 282 283 283 284 290 295 295 295 296
285 283 283 287 288 287 286 285 290 287 287 287 286 283 282 281 281 282 282 282 282 282 282 283 284 284 284 284 283 282 281 281 281 282 282 282 282 282 281 281 280 281 281 283 285 289 292 294 295
284 283 283 284 285 285 282 280 285 286 287 287 287 285 283 282 281 282 281 281 280 281 281 283 283 284 284 283 283 282 281 280 278 279 280 281 281 281 280 280 280 281 281 285 286 288 292 292 293
282 286 285 284 281 278 281 277 280 283 284 284 285 281 282 280 281 281 281 280 280 281 281 282 283 283 284 283 281 278 277 276 277 278 279 279 280 279 279 279 279 280 281 279 282 286 288 292 290
285 285 283 281 280 277 278 276 278 279 281 285 282 282 282 281 281 280 281 282 282 282 280 281 281 282 283 282 280 278 277 278 278 277 276 277 278 279 278 278 279 277 277 278 279 282 286 290 291
287 284 282 278 277 272 277 278 276 279 282 282 281 282 281 280 280 280 281 282 281 281 280 280 280 280 282 280 279 277 276 276 275 275 275 276 277 277 277 278 276 276 276 277 279 280 283 285 288
284 282 277 274 272 275 276 274 282 286 285 283 283 281 280 280 279 279 280 280 280 280 280 280 280 279 279 278 277 276 276 275 275 274 274 275 275 275 275 276 275 274 276 277 277 277 280 286 285
283 283 278 271 271 277 274 275 281 282 280 280 281 282 280 279 279 279 280 280 280 280 279 279 278 278 278 277 276 276 275 274 274 274 274 274 274 275 275 275 275 275 275 274 275 277 279 283 284
282 279 282 277 262 267 276 278 282 278 278 277 279 279 278 279 278 279 279 280 279 278 279 278 277 277 277 276 275 274 273 273 273 273 274 274 275 275 275 274 274 274 273 274 273 273 276 279 284
281 283 277 275 267 265 273 276 281 280 279 276 276 277 278 278 278 278 279 279 279 278 278 277 276 276 275 275 273 274 273 272 272 273 273 273 274 274 274 273 273 273 273 273 273 274 276 278 281
278 277 278 278 277 271 267 279 282 284 282 276 277 278 278 278 278 278 278 278 278 278 276 275 275 275 274 274 273 272 272 272 272 272 272 272 273 273 272 272 272 272 272 272 272 272 272 274 277
281 282 281 276 273 272 274 280 280 282 282 278 278 279 278 278 278 277 278 277 277 276 275 274 274 273 273 272 271 271 271 270 270 270 271 272 271 272 272 271 271 271 271 271 271 271 272 273 277
Wind_Speed
3 2 3 5 5 7 1 1 2 2 2 4 5 15 12 2 3 5 3 13 15 14 14 13 17 18 20 18 15 11 7 7 9 10 10 10 10 11 12 12 10 10 9 11 12 12 13 11 9
2 2 5 3 6 4 4 2 2 3 5 10 8 3 9 4 5 4 6 12 10 9 12 14 19 20 21 21 20 21 19 17 15 14 14 14 14 13 13 14 12 12 12 13 13 14 13 12 11
2 4 4 5 4 4 4 3 4 2 3 3 6 7 4 5 3 4 6 8 7 12 11 14 21 23 24 24 24 22 21 21 20 19 18 18 17 16 14 14 14 14 14 15 15 15 14 13 12
3 5 5 6 2 2 4 3 4 6 3 8 6 9 5 5 0 4 7 6 8 9 10 16 23 24 25 25 25 24 23 22 21 21 21 21 19 20 18 17 16 15 17 17 17 16 15 14 13
5 3 5 4 1 1 1 1 5 3 4 4 2 5 5 3 6 4 3 7 8 8 9 12 24 24 25 26 25 24 24 23 22 21 21 21 21 20 19 20 19 17 18 19 19 16 15 14 14
5 3 5 3 2 1 3 2 3 3 4 4 7 6 3 2 2 3 4 7 6 7 7 8 16 22 24 27 26 25 25 24 24 24 25 25 24 22 20 20 21 20 20 19 19 18 17 15 14
6 4 4 4 6 1 2 2 3 5 4 3 7 5 5 3 1 0 5 6 6 6 8 8 7 11 16 22 24 24 26 25 25 24 26 26 25 25 24 24 22 22 22 19 19 19 18 18 15
6 5 3 2 5 3 2 3 2 4 3 1 2 8 7 6 4 3 6 7 7 7 7 8 7 7 7 7 20 21 23 23 23 24 25 22 23 24 23 23 24 25 25 24 19 19 19 20 19
3 5 2 3 6 4 2 4 3 1 6 3 4 4 6 8 4 5 5 6 5 7 7 7 9 9 8 8 11 13 16 18 19 18 22 16 11 12 18 22 27 29 28 26 24 23 21 18 19
5 4 5 2 4 5 3 4 9 5 4 3 4 5 5 4 4 8 5 5 5 6 7 7 7 7 7 7 7 7 8 6 6 7 11 10 11 11 14 14 21 25 26 28 26 24 21 16 9
2 3 4 3 4 5 4 4 4 9 6 10 13 11 7 6 7 7 4 5 4 3 5 7 7 7 7 6 5 4 3 4 5 6 6 6 8 9 9 8 8 9 16 10 14 16 9 12 9
2 1 3 5 3 4 5 7 4 5 4 5 14 13 7 8 7 7 6 5 4 4 4 5 6 5 5 3 3 3 3 4 5 6 7 5 7 7 8 8 9 7 8 10 10 9 15 16 13
1 2 2 6 6 4 6 3 5 7 2 8 12 7 9 8 8 6 7 4 4 5 4 4 5 6 5 5 4 5 5 4 6 7 9 7 10 8 8 9 8 6 8 8 9 10 11 14 19
3 3 5 4 6 6 6 1 3 6 6 8 10 10 9 10 9 5 5 5 3 3 3 3 4 6 6 5 6 4 4 4 4 5 5 8 8 8 10 11 10 8 8 8 7 9 11 11 13
3 6 7 3 6 5 6 4 12 7 10 12 11 9 9 9 8 8 8 7 5 2 2 4 3 5 5 4 4 4 4 4 4 5 6 7 8 10 12 10 10 9 9 11 8 9 10 10 11
5 3 5 2 5 2 5 12 9 12 17 16 12 9 10 9 9 7 8 6 5 5 3 2 1 2 2 2 3 3 4 3 4 4 5 6 11 11 11 9 10 11 10 10 9 10 10 10 11
6 3 3 9 6 4 7 10 3 9 13 12 12 11 10 8 7 7 8 7 6 6 4 2 1 1 2 3 3 3 3 3 3 3 6 11 12 15 12 11 10 13 11 10 9 12 9 10 11
4 5 5 7 3 3 5 17 8 10 14 18 12 10 10 10 11 9 9 7 6 6 4 1 2 3 3 2 3 2 3 4 4 4 4 8 10 12 12 12 14 14 12 11 10 12 9 10 10
2 3 7 6 6 4 9 15 22 11 10 13 11 14 14 13 8 9 8 7 6 5 4 1 2 3 1 2 3 4 4 4 3 3 5 8 9 10 11 10 11 11 12 15 17 13 13 11 6
3 4 8 10 3 6 9 12 19 9 12 21 20 17 17 10 9 10 8 7 4 6 3 2 2 3 2 1 1 0 2 3 3 3 4 5 8 10 10 13 12 13 12 15 15 15 13 12 6
5 6 6 9 7 5 8 7 12 4 10 6 13 12 15 17 14 12 10 8 6 6 5 2 3 3 2 3 2 2 3 3 2 5 6 5 9 9 10 14 13 13 12 12 15 15 18 13 8
5 5 3 5 5 4 4 13 5 6 13 10 12 14 17 14 9 10 10 8 8 7 5 4 3 4 3 4 3 3 3 6 5 7 8 9 10 10 10 13 14 13 11 16 14 13 16 14 14
8 2 2 2 5 4 5 5 7 2 10 18 14 18 17 17 15 12 11 9 7 7 6 3 4 5 5 4 4 3 5 6 7 7 12 12 10 10 11 13 12 14 11 14 17 18 16 15 13
4 2 3 4 2 2 5 8 5 6 10 7 6 14 16 16 12 10 9 8 5 4 3 3 4 5 6 5 6 6 7 8 9 10 10 10 10 9 11 13 11 14 13 16 13 16 19 16 16
4 5 5 7 3 10 4 4 14 12 12 8 9 11 14 14 12 10 9 8 6 6 5 3 3 6 6 6 6 6 7 8 9 9 9 13 11 11 13 13 13 13 15 14 17 18 19 16 13
6 8 8 8 5 9 1 12 9 6 7 7 8 9 10 12 11 10 9 8 7 6 5 3 5 6 6 6 7 6 7 5 7 9 10 10 11 12 15 15 15 16 17 17 17 15 13 17 14
5 5 1 3 3 4 6 10 9 5 9 4 6 9 13 15 13 11 8 8 7 6 6 3 4 6 6 6 6 7 6 7 10 12 12 11 13 13 17 16 17 17 17 18 20 15 17 17 16
4 6 5 3 3 8 8 14 18 9 12 5 8 12 13 11 10 9 7 7 6 5 3 3 5 7 6 6 5 8 9 8 10 11 14 15 15 17 18 18 18 18 17 17 18 15 14 16 14
3 4 2 3 6 8 3 17 8 9 12 12 15 13 14 15 12 9 8 7 5 4 2 5 6 6 7 7 8 8 9 10 11 12 14 15 16 17 18 18 20 18 18 18 17 17 19 19 18
3 11 14 8 8 4 4 29 5 9 9 11 13 14 12 13 11 8 8 6 5 3 3 6 5 6 7 7 9 10 10 11 11 12 14 15 17 17 19 19 20 19 19 17 18 18 16 17 18
Wind_Direction
37 68 85 44 55 66 343 138 313 132 87 27 53 92 115 89 51 155 336 0 352 13 12 3 10 24 24 16 8 337 309 305 298 297 283 273 273 280 287 287 278 270 268 285 285 283 289 289 285
3 111 43 85 82 60 285 274 119 175 133 122 72 43 44 64 31 70 22 336 347 17 25 23 32 30 26 26 30 27 19 2 335 323 316 307 299 289 287 292 294 294 287 288 288 288 284 282 282
105 52 80 89 106 152 182 209 200 123 81 110 105 48 65 340 315 81 340 326 337 27 19 24 37 40 36 31 30 26 19 13 7 356 340 321 313 306 299 293 291 291 292 289 287 287 286 282 279
77 14 35 77 93 208 186 180 221 138 79 55 108 71 61 356 35 35 329 335 42 28 21 31 41 41 38 34 30 28 25 23 16 7 359 353 336 322 312 303 298 292 291 289 285 284 281 279 275
36 59 64 85 145 258 197 244 181 106 102 58 87 122 95 30 21 24 345 31 36 17 11 27 34 36 35 32 29 26 22 20 16 9 5 2 354 343 328 312 302 295 291 289 287 283 278 281 282
41 85 65 156 207 291 304 164 123 78 96 146 81 98 124 94 109 337 35 47 33 37 19 24 27 30 31 29 25 24 22 19 15 14 9 359 354 353 348 341 316 297 291 287 285 284 277 278 272
111 87 165 135 168 194 194 120 103 116 95 65 145 97 161 152 280 129 76 59 41 32 36 26 26 25 28 28 25 22 19 18 17 16 9 3 0 355 352 344 337 325 301 286 283 282 280 276 266
103 89 99 112 178 200 296 80 82 68 149 68 105 171 187 183 189 172 60 43 38 30 31 25 23 24 16 20 22 22 22 20 15 11 7 6 2 353 353 349 339 332 323 306 283 279 276 277 270
121 64 115 161 154 193 233 134 27 51 95 44 328 134 147 144 155 95 49 26 26 29 32 20 18 13 8 18 10 11 12 14 14 10 5 1 358 353 357 348 346 347 340 324 311 293 279 272 270
79 96 189 211 171 176 196 167 156 126 135 54 37 42 88 104 107 91 84 53 38 26 11 25 20 10 1 4 1 354 355 351 355 359 3 1 352 356 350 342 345 347 340 337 326 313 298 282 270
186 154 180 222 197 159 193 129 140 129 233 195 182 171 167 146 125 124 94 75 67 29 26 20 18 6 3 350 346 339 345 342 348 352 352 357 356 349 347 336 339 343 337 328 332 322 302 290 268
352 30 188 178 230 155 180 131 155 211 241 182 159 162 153 152 145 135 125 128 123 78 45 19 14 360 335 323 328 323 352 356 351 336 341 350 350 345 340 334 326 334 330 316 336 333 329 305 274
144 288 302 164 182 221 135 177 202 231 207 130 131 146 154 154 161 160 149 113 90 62 29 2 5 6 341 350 342 352 351 357 345 346 341 350 349 342 332 329 319 312 318 323 325 323 321 314 312
312 281 269 254 209 180 184 152 36 196 152 135 156 174 172 170 174 153 146 138 117 116 61 346 13 13 356 0 351 341 340 336 349 342 332 344 340 337 334 325 317 303 310 306 304 311 311 313 304
337 329 328 212 188 200 138 267 237 150 165 175 187 181 182 191 175 173 164 155 137 130 95 20 26 26 6 339 325 327 309 348 357 357 339 334 344 334 326 322 314 302 304 300 298 304 301 302 309
22 52 357 312 136 206 133 264 261 168 172 196 196 188 187 192 184 170 154 139 138 117 95 23 22 357 355 308 296 301 336 349 348 350 343 346 337 339 324 320 317 307 298 301 298 301 298 302 307
14 278 267 313 198 126 186 266 261 173 190 201 203 195 196 194 184 176 168 162 150 130 113 55 324 320 323 324 314 302 359 7 352 348 341 346 341 339 336 323 324 325 311 295 291 294 286 294 299
262 287 260 241 290 204 235 268 260 203 200 213 200 194 200 199 199 182 176 174 147 128 120 10 301 280 281 280 268 305 5 358 354 341 332 340 334 330 328 322 320 318 308 302 292 279 275 282 290
206 224 246 251 232 244 236 253 270 216 217 225 204 201 206 205 202 180 176 174 143 127 112 293 297 294 286 250 330 11 358 322 330 319 326 333 322 322 321 306 305 310 299 296 298 283 279 274 268
217 272 269 282 282 187 265 251 271 201 222 217 212 204 203 195 189 183 186 185 169 156 168 259 301 306 298 342 353 21 294 271 280 281 301 296 310 308 312 315 307 302 297 294 284 285 279 267 248
220 196 243 239 332 276 314 260 244 251 254 242 222 208 208 196 189 187 191 190 172 177 196 234 305 297 291 352 336 324 284 282 286 320 309 305 307 305 312 303 296 300 299 296 301 299 278 267 256
276 206 261 289 348 255 32 290 253 247 265 226 218 199 202 191 189 187 187 187 186 195 197 217 319 317 303 353 345 331 290 309 301 303 296 300 315 310 306 297 295 294 307 295 291 293 299 264 262
224 102 224 228 250 329 216 254 256 53 272 260 218 214 204 193 188 187 187 187 191 179 201 206 306 308 309 320 309 300 292 293 303 297 302 317 314 302 300 292 295 300 295 291 290 290 285 288 258
111 38 52 53 54 311 232 195 238 202 216 256 234 214 194 189 185 186 186 177 192 197 213 226 305 299 303 307 298 278 277 294 300 304 315 309 305 302 298 287 290 299 291 284 290 291 284 276 288
97 69 328 329 353 234 163 237 251 251 249 234 243 205 202 185 180 182 177 184 205 220 233 240 300 300 299 288 287 284 271 268 287 303 300 297 298 301 295 290 290 295 284 291 290 286 274 279 281
171 166 164 243 234 282 48 245 254 240 282 278 263 215 189 182 182 184 185 191 206 225 220 250 297 291 281 280 281 277 269 280 291 290 292 289 290 290 292 291 290 285 294 289 279 275 289 277 269
172 181 168 75 87 354 245 284 286 281 282 279 216 174 190 188 186 185 186 191 205 222 216 247 285 274 273 276 271 278 289 301 296 291 290 290 286 289 291 293 290 286 287 287 289 281 282 286 285
151 157 80 12 253 265 265 277 250 248 262 188 226 215 201 188 187 190 188 193 210 200 218 280 270 264 281 286 292 307 298 290 293 294 293 291 291 293 292 291 289 285 282 281 280 281 277 280 281
131 216 123 150 166 200 293 271 193 210 218 199 215 216 202 199 191 186 189 193 200 175 250 288 283 317 317 315 305 295 300 303 297 291 294 294 292 293 292 293 291 286 283 281 277 278 277 273 274
244 200 176 187 229 250 151 262 163 196 218 181 212 209 205 203 190 183 185 186 180 220 267 277 326 308 300 298 296 302 306 300 298 295 294 294 293 295 294 294 290 287 283 278 275 274 273 276 272